| time (UTC) | temp C | wind direction | speed KPH | gust KPH | rain 1hr cm | rain 24hr cm | rain mn cm | humidity % | barometer mb |
| 20260505051532 | 16 | 144 | 4.8 | 24.1 | 0.00 | 0.00 | 0.00 | 47 | 1007.8 |
| 20260505041528 | 17 | 158 | 1.6 | 3.2 | 0.00 | 0.00 | 0.00 | 46 | 1007.5 |
| 20260505040028 | 17 | 165 | 0.0 | 4.8 | 0.00 | 0.00 | 0.00 | 45 | 1007.2 |
| 20260505034527 | 18 | 182 | 1.6 | 4.8 | 0.00 | 0.00 | 0.00 | 43 | 1007.0 |
| 20260505033035 | 18 | 169 | 3.2 | 6.4 | 0.00 | 0.00 | 0.00 | 40 | 1006.7 |
| 20260505031526 | 17 | 136 | 1.6 | 4.8 | 0.00 | 0.00 | 0.00 | 40 | 1006.5 |
| 20260505030026 | 18 | 181 | 0.0 | 1.6 | 0.00 | 0.00 | 0.00 | 43 | 1006.3 |
| 20260505024548 | 19 | 182 | 0.0 | 3.2 | 0.00 | 0.00 | 0.00 | 37 | 1006.1 |
| 20260505023035 | 20 | 199 | 0.0 | 4.8 | 0.00 | 0.00 | 0.00 | 34 | 1006.1 |
| 20260505021542 | 20 | 203 | 1.6 | 8.0 | 0.00 | 0.00 | 0.00 | 33 | 1006.0 |
| 20260505020024 | 21 | 196 | 0.0 | 4.8 | 0.00 | 0.00 | 0.00 | 32 | 1006.0 |
| 20260505014526 | 21 | 205 | 1.6 | 8.0 | 0.00 | 0.00 | 0.00 | 30 | 1005.8 |
| 20260505013023 | 21 | 175 | 1.6 | 6.4 | 0.00 | 0.00 | 0.00 | 30 | 1005.9 |
| 20260505011527 | 21 | 182 | 4.8 | 9.7 | 0.00 | 0.00 | 0.00 | 29 | 1006.0 |
| 20260505010020 | 22 | 198 | 4.8 | 11.3 | 0.00 | 0.00 | 0.00 | 29 | 1006.1 |
| 20260505004531 | 22 | 194 | 4.8 | 14.5 | 0.00 | 0.00 | 0.00 | 29 | 1006.1 |
| 20260505003017 | 22 | 156 | 4.8 | 12.9 | 0.00 | 0.00 | 0.00 | 29 | 1006.3 |
| 20260505001517 | 22 | 163 | 4.8 | 11.3 | 0.00 | 0.00 | 0.00 | 29 | 1006.4 |
| 20260505000016 | 22 | 161 | 4.8 | 11.3 | 0.00 | 0.00 | 0.00 | 30 | 1006.4 |
| 20260504234518 | 22 | 161 | 4.8 | 12.9 | 0.00 | 0.00 | 0.00 | 30 | 1006.5 |
| 20260504233015 | 22 | 144 | 4.8 | 17.7 | 0.00 | 0.00 | 0.00 | 30 | 1006.5 |
| 20260504231514 | 23 | 228 | 3.2 | 9.7 | 0.00 | 0.00 | 0.00 | 27 | 1006.5 |
| 20260504230013 | 22 | 229 | 6.4 | 12.9 | 0.00 | 0.00 | 0.00 | 27 | 1006.5 |
| 20260504224513 | 22 | 213 | 6.4 | 17.7 | 0.00 | 0.00 | 0.00 | 30 | 1006.4 |
| 20260504223012 | 22 | 252 | 6.4 | 16.1 | 0.00 | 0.00 | 0.00 | 30 | 1006.4 |
| 20260504221510 | 23 | 281 | 4.8 | 11.3 | 0.00 | 0.00 | 0.00 | 26 | 1006.4 |
| 20260504220009 | 23 | 217 | 3.2 | 9.7 | 0.00 | 0.00 | 0.00 | 25 | 1006.3 |
| 20260504214507 | 23 | 222 | 4.8 | 14.5 | 0.00 | 0.00 | 0.00 | 25 | 1006.5 |
| 20260504213006 | 23 | 254 | 3.2 | 8.0 | 0.00 | 0.00 | 0.00 | 25 | 1006.8 |
| 20260504211503 | 23 | 263 | 3.2 | 11.3 | 0.00 | 0.00 | 0.00 | 26 | 1006.9 |
| 20260504210002 | 23 | 313 | 1.6 | 19.3 | 0.00 | 0.00 | 0.00 | 27 | 1007.1 |
| 20260504204502 | 22 | 238 | 4.8 | 20.9 | 0.00 | 0.00 | 0.00 | 29 | 1007.2 |
| 20260504203100 | 23 | 198 | 3.2 | 11.3 | 0.00 | 0.00 | 0.00 | 28 | 1007.4 |
| 20260504201609 | 23 | 300 | 3.2 | 16.1 | 0.00 | 0.00 | 0.00 | 30 | 1007.4 |
| 20260504200107 | 23 | 290 | 4.8 | 14.5 | 0.00 | 0.00 | 0.00 | 30 | 1007.5 |
| 20260504194552 | 22 | 253 | 3.2 | 17.7 | 0.00 | 0.00 | 0.00 | 30 | 1007.6 |
| 20260504193051 | 22 | 317 | 3.2 | 14.5 | 0.00 | 0.00 | 0.00 | 30 | 1007.9 |
| 20260504191548 | 22 | 204 | 3.2 | 9.7 | 0.00 | 0.00 | 0.00 | 31 | 1008.0 |
| 20260504190048 | 22 | 170 | 3.2 | 12.9 | 0.00 | 0.00 | 0.00 | 29 | 1008.1 |
| 20260504184555 | 22 | 205 | 4.8 | 11.3 | 0.00 | 0.00 | 0.00 | 30 | 1008.2 |
| 20260504183043 | 22 | 171 | 1.6 | 11.3 | 0.00 | 0.00 | 0.00 | 33 | 1008.3 |
| 20260504181544 | 21 | 186 | 3.2 | 8.0 | 0.00 | 0.00 | 0.00 | 33 | 1008.6 |
| 20260504180041 | 21 | 139 | 6.4 | 14.5 | 0.00 | 0.00 | 0.00 | 32 | 1008.8 |
| 20260504174537 | 21 | 155 | 4.8 | 11.3 | 0.00 | 0.00 | 0.00 | 32 | 1008.9 |
| 20260504173035 | 20 | 219 | 6.4 | 11.3 | 0.00 | 0.00 | 0.00 | 34 | 1009.0 |
| 20260504171535 | 20 | 146 | 4.8 | 14.5 | 0.00 | 0.00 | 0.00 | 36 | 1009.1 |
| 20260504081548 | 13 | 19 | 0.0 | 6.4 | 0.00 | 0.00 | 0.00 | 42 | 1008.6 |